Year,Month,Day,Hour,Minute,Value (Times are PST for temperature in C)
2021,06,24,00,00,17.40
2021,06,24,00,01,17.40
2021,06,24,00,02,17.40
2021,06,24,00,03,17.40
2021,06,24,00,04,17.40
2021,06,24,00,05,17.30
2021,06,24,00,06,17.30
2021,06,24,00,07,17.30
2021,06,24,00,08,17.30
2021,06,24,00,09,17.30
2021,06,24,00,10,17.30
2021,06,24,00,11,17.40
2021,06,24,00,12,17.40
2021,06,24,00,13,17.40
2021,06,24,00,14,17.40
2021,06,24,00,15,17.40
2021,06,24,00,16,17.40
2021,06,24,00,17,17.40
2021,06,24,00,18,17.40
2021,06,24,00,19,17.40
2021,06,24,00,20,17.40
2021,06,24,00,21,17.40
2021,06,24,00,22,17.40
2021,06,24,00,23,17.40
2021,06,24,00,24,17.40
2021,06,24,00,25,17.40
2021,06,24,00,26,17.40
2021,06,24,00,27,17.40
2021,06,24,00,28,17.40
2021,06,24,00,29,17.50
2021,06,24,00,30,17.50
2021,06,24,00,31,17.50
2021,06,24,00,32,17.50
2021,06,24,00,33,17.50
2021,06,24,00,34,17.50
2021,06,24,00,35,17.50
2021,06,24,00,36,17.50
2021,06,24,00,37,17.50
2021,06,24,00,38,17.40
2021,06,24,00,39,17.40
2021,06,24,00,40,17.40
2021,06,24,00,41,17.40
2021,06,24,00,42,17.40
2021,06,24,00,43,17.40
2021,06,24,00,44,17.30
2021,06,24,00,45,17.30
2021,06,24,00,46,17.30
2021,06,24,00,47,17.30
2021,06,24,00,48,17.30
2021,06,24,00,49,17.30
2021,06,24,00,50,17.30
2021,06,24,00,51,17.30
2021,06,24,00,52,17.30
2021,06,24,00,53,17.30
2021,06,24,00,54,17.30
2021,06,24,00,55,17.30
2021,06,24,00,56,17.30
2021,06,24,00,57,17.30
2021,06,24,00,58,17.30
2021,06,24,00,59,17.20
2021,06,24,01,00,17.20
2021,06,24,01,01,17.20
2021,06,24,01,02,17.20
2021,06,24,01,03,17.10
2021,06,24,01,04,17.10
2021,06,24,01,05,17.10
2021,06,24,01,06,17.10
2021,06,24,01,07,17.10
2021,06,24,01,08,17.10
2021,06,24,01,09,17.00
2021,06,24,01,10,17.00
2021,06,24,01,11,17.00
2021,06,24,01,12,17.00
2021,06,24,01,13,17.00
2021,06,24,01,14,17.00
2021,06,24,01,15,17.00
2021,06,24,01,16,17.00
2021,06,24,01,17,17.00
2021,06,24,01,18,17.00
2021,06,24,01,19,17.00
2021,06,24,01,20,17.00
2021,06,24,01,21,17.00
2021,06,24,01,22,16.90
2021,06,24,01,23,16.90
2021,06,24,01,24,16.90
2021,06,24,01,25,16.90
2021,06,24,01,26,16.90
2021,06,24,01,27,16.90
2021,06,24,01,28,16.90
2021,06,24,01,29,16.80
2021,06,24,01,30,16.80
2021,06,24,01,31,16.80
2021,06,24,01,32,16.80
2021,06,24,01,33,16.80
2021,06,24,01,34,16.80
2021,06,24,01,35,16.70
2021,06,24,01,36,16.70
2021,06,24,01,37,16.70
2021,06,24,01,38,16.70
2021,06,24,01,39,16.70
2021,06,24,01,40,16.70
2021,06,24,01,41,16.70
2021,06,24,01,42,16.70
2021,06,24,01,43,16.70
2021,06,24,01,44,16.70
2021,06,24,01,45,16.70
2021,06,24,01,46,16.70
2021,06,24,01,47,16.70
2021,06,24,01,48,16.70
2021,06,24,01,49,16.70
2021,06,24,01,50,16.70
2021,06,24,01,51,16.70
2021,06,24,01,52,16.70
2021,06,24,01,53,16.70
2021,06,24,01,54,16.60
2021,06,24,01,55,16.60
2021,06,24,01,56,16.60
2021,06,24,01,57,16.60
2021,06,24,01,58,16.60
2021,06,24,01,59,16.70
2021,06,24,02,00,16.70
2021,06,24,02,01,16.70
2021,06,24,02,02,16.70
2021,06,24,02,03,16.70
2021,06,24,02,04,16.70
2021,06,24,02,05,16.70
2021,06,24,02,06,16.70
2021,06,24,02,07,16.70
2021,06,24,02,08,16.60
2021,06,24,02,09,16.60
2021,06,24,02,10,16.60
2021,06,24,02,11,16.60
2021,06,24,02,12,16.60
2021,06,24,02,13,16.60
2021,06,24,02,14,16.60
2021,06,24,02,15,16.60
2021,06,24,02,16,16.60
2021,06,24,02,17,16.50
2021,06,24,02,18,16.40
2021,06,24,02,19,16.40
2021,06,24,02,20,16.40
2021,06,24,02,21,16.40
2021,06,24,02,22,16.40
2021,06,24,02,23,16.40
2021,06,24,02,24,16.40
2021,06,24,02,25,16.40
2021,06,24,02,26,16.40
2021,06,24,02,27,16.40
2021,06,24,02,28,16.40
2021,06,24,02,29,16.40
2021,06,24,02,30,16.30
2021,06,24,02,31,16.30
2021,06,24,02,32,16.30
2021,06,24,02,33,16.30
2021,06,24,02,34,16.30
2021,06,24,02,35,16.30
2021,06,24,02,36,16.30
2021,06,24,02,37,16.30
2021,06,24,02,38,16.30
2021,06,24,02,39,16.30
2021,06,24,02,40,16.30
2021,06,24,02,41,16.30
2021,06,24,02,42,16.30
2021,06,24,02,43,16.30
2021,06,24,02,44,16.30
2021,06,24,02,45,16.30
2021,06,24,02,46,16.30
2021,06,24,02,47,16.30
2021,06,24,02,48,16.30
2021,06,24,02,49,16.30
2021,06,24,02,50,16.30
2021,06,24,02,51,16.30
2021,06,24,02,52,16.30
2021,06,24,02,53,16.20
2021,06,24,02,54,16.20
2021,06,24,02,55,16.20
2021,06,24,02,56,16.30
2021,06,24,02,57,16.30
2021,06,24,02,58,16.30
2021,06,24,02,59,16.40
2021,06,24,03,00,16.40
2021,06,24,03,01,16.40
2021,06,24,03,02,16.40
2021,06,24,03,03,16.40
2021,06,24,03,04,16.40
2021,06,24,03,05,16.40
2021,06,24,03,06,16.40
2021,06,24,03,07,16.40
2021,06,24,03,08,16.30
2021,06,24,03,09,16.30
2021,06,24,03,10,16.30
2021,06,24,03,11,16.30
2021,06,24,03,12,16.30
2021,06,24,03,13,16.30
2021,06,24,03,14,16.20
2021,06,24,03,15,16.20
2021,06,24,03,16,16.20
2021,06,24,03,17,16.20
2021,06,24,03,18,16.20
2021,06,24,03,19,16.20
2021,06,24,03,20,16.10
2021,06,24,03,21,16.10
2021,06,24,03,22,16.10
2021,06,24,03,23,16.10
2021,06,24,03,24,16.10
2021,06,24,03,25,16.10
2021,06,24,03,26,16.10
2021,06,24,03,27,16.10
2021,06,24,03,28,16.00
2021,06,24,03,29,15.90
2021,06,24,03,30,15.90
2021,06,24,03,31,15.90
2021,06,24,03,32,15.90
2021,06,24,03,33,15.90
2021,06,24,03,34,15.90
2021,06,24,03,35,15.80
2021,06,24,03,36,15.80
2021,06,24,03,37,15.80
2021,06,24,03,38,15.80
2021,06,24,03,39,15.80
2021,06,24,03,40,15.80
2021,06,24,03,41,15.80
2021,06,24,03,42,15.80
2021,06,24,03,43,15.80
2021,06,24,03,44,15.80
2021,06,24,03,45,15.80
2021,06,24,03,46,15.80
2021,06,24,03,47,15.80
2021,06,24,03,48,15.80
2021,06,24,03,49,15.80
2021,06,24,03,50,15.80
2021,06,24,03,51,15.80
2021,06,24,03,52,15.80
2021,06,24,03,53,15.80
2021,06,24,03,54,15.80
2021,06,24,03,55,15.80
2021,06,24,03,56,15.80
2021,06,24,03,57,15.80
2021,06,24,03,58,15.80
2021,06,24,03,59,15.80
2021,06,24,04,00,15.80
2021,06,24,04,01,15.80
2021,06,24,04,02,15.80
2021,06,24,04,03,15.80
2021,06,24,04,04,15.80
2021,06,24,04,05,15.80
2021,06,24,04,06,15.80
2021,06,24,04,07,15.80
2021,06,24,04,08,15.80
2021,06,24,04,09,15.80
2021,06,24,04,10,15.80
2021,06,24,04,11,15.80
2021,06,24,04,12,15.80
2021,06,24,04,13,15.80
2021,06,24,04,14,15.80
2021,06,24,04,15,15.80
2021,06,24,04,16,15.80
2021,06,24,04,17,15.80
2021,06,24,04,18,15.80
2021,06,24,04,19,15.80
2021,06,24,04,20,15.80
2021,06,24,04,21,15.80
2021,06,24,04,22,15.80
2021,06,24,04,23,15.80
2021,06,24,04,24,15.80
2021,06,24,04,25,15.80
2021,06,24,04,26,15.80
2021,06,24,04,27,15.80
2021,06,24,04,28,15.70
2021,06,24,04,29,15.70
2021,06,24,04,30,15.70
2021,06,24,04,31,15.70
2021,06,24,04,32,15.70
2021,06,24,04,33,15.60
2021,06,24,04,34,15.60
2021,06,24,04,35,15.60
2021,06,24,04,36,15.50
2021,06,24,04,37,15.50
2021,06,24,04,38,15.50
2021,06,24,04,39,15.50
2021,06,24,04,40,15.40
2021,06,24,04,41,15.40
2021,06,24,04,42,15.40
2021,06,24,04,43,15.40
2021,06,24,04,44,15.30
2021,06,24,04,45,15.30
2021,06,24,04,46,15.30
2021,06,24,04,47,15.30
2021,06,24,04,48,15.30
2021,06,24,04,49,15.30
2021,06,24,04,50,15.30
2021,06,24,04,51,15.30
2021,06,24,04,52,15.30
2021,06,24,04,53,15.30
2021,06,24,04,54,15.20
2021,06,24,04,55,15.20
2021,06,24,04,56,15.20
2021,06,24,04,57,15.20
2021,06,24,04,58,15.20
2021,06,24,04,59,15.20
2021,06,24,05,00,15.10
2021,06,24,05,01,15.10
2021,06,24,05,02,15.10
2021,06,24,05,03,15.10
2021,06,24,05,04,15.10
2021,06,24,05,05,15.00
2021,06,24,05,06,15.00
2021,06,24,05,07,15.00
2021,06,24,05,08,15.00
2021,06,24,05,09,15.00
2021,06,24,05,10,15.00
2021,06,24,05,11,15.00
2021,06,24,05,12,15.00
2021,06,24,05,13,15.10
2021,06,24,05,14,15.10
2021,06,24,05,15,15.10
2021,06,24,05,16,15.10
2021,06,24,05,17,15.10
2021,06,24,05,18,15.10
2021,06,24,05,19,15.00
2021,06,24,05,20,15.00
2021,06,24,05,21,15.00
2021,06,24,05,22,15.00
2021,06,24,05,23,15.00
2021,06,24,05,24,15.00
2021,06,24,05,25,14.90
2021,06,24,05,26,14.90
2021,06,24,05,27,14.90
2021,06,24,05,28,14.90
2021,06,24,05,29,14.90
2021,06,24,05,30,14.90
2021,06,24,05,31,14.90
2021,06,24,05,32,14.80
2021,06,24,05,33,14.80
2021,06,24,05,34,14.80
2021,06,24,05,35,14.80
2021,06,24,05,36,14.80
2021,06,24,05,37,14.80
2021,06,24,05,38,14.80
2021,06,24,05,39,14.80
2021,06,24,05,40,14.80
2021,06,24,05,41,14.80
2021,06,24,05,42,14.80
2021,06,24,05,43,14.80
2021,06,24,05,44,14.80
2021,06,24,05,45,14.80
2021,06,24,05,46,14.80
2021,06,24,05,47,14.80
2021,06,24,05,48,14.80
2021,06,24,05,49,14.80
2021,06,24,05,50,14.80
2021,06,24,05,51,14.80
2021,06,24,05,52,14.80
2021,06,24,05,53,14.80
2021,06,24,05,54,14.80
2021,06,24,05,55,14.80
2021,06,24,05,56,14.80
2021,06,24,05,57,14.80
2021,06,24,05,58,14.80
2021,06,24,05,59,14.80
2021,06,24,06,00,14.80
2021,06,24,06,01,14.80
2021,06,24,06,02,14.80
2021,06,24,06,03,14.80
2021,06,24,06,04,14.80
2021,06,24,06,05,14.80
2021,06,24,06,06,14.80
2021,06,24,06,07,14.80
2021,06,24,06,08,14.80
2021,06,24,06,09,14.80
2021,06,24,06,10,14.80
2021,06,24,06,11,14.80
2021,06,24,06,12,14.80
2021,06,24,06,13,14.80
2021,06,24,06,14,14.80
2021,06,24,06,15,14.90
2021,06,24,06,16,14.90
2021,06,24,06,17,14.90
2021,06,24,06,18,14.90
2021,06,24,06,19,14.90
2021,06,24,06,20,15.00
2021,06,24,06,21,15.00
2021,06,24,06,22,15.00
2021,06,24,06,23,15.10
2021,06,24,06,24,15.10
2021,06,24,06,25,15.10
2021,06,24,06,26,15.10
2021,06,24,06,27,15.10
2021,06,24,06,28,15.10
2021,06,24,06,29,15.20
2021,06,24,06,30,15.20
2021,06,24,06,31,15.20
2021,06,24,06,32,15.20
2021,06,24,06,33,15.20
2021,06,24,06,34,15.20
2021,06,24,06,35,15.30
2021,06,24,06,36,15.30
2021,06,24,06,37,15.30
2021,06,24,06,38,15.30
2021,06,24,06,39,15.40
2021,06,24,06,40,15.50
2021,06,24,06,41,15.60
2021,06,24,06,42,15.60
2021,06,24,06,43,15.70
2021,06,24,06,44,15.80
2021,06,24,06,45,15.80
2021,06,24,06,46,15.80
2021,06,24,06,47,15.80
2021,06,24,06,48,15.80
2021,06,24,06,49,15.80
2021,06,24,06,50,15.90
2021,06,24,06,51,15.90
2021,06,24,06,52,16.00
2021,06,24,06,53,16.10
2021,06,24,06,54,16.10
2021,06,24,06,55,16.10
2021,06,24,06,56,16.20
2021,06,24,06,57,16.20
2021,06,24,06,58,16.30
2021,06,24,06,59,16.30
2021,06,24,07,00,16.30
2021,06,24,07,01,16.40
2021,06,24,07,02,16.40
2021,06,24,07,03,16.40
2021,06,24,07,04,16.40
2021,06,24,07,05,16.40
2021,06,24,07,06,16.50
2021,06,24,07,07,16.60
2021,06,24,07,08,16.60
2021,06,24,07,09,16.60
2021,06,24,07,10,16.70
2021,06,24,07,11,16.70
2021,06,24,07,12,16.70
2021,06,24,07,13,16.70
2021,06,24,07,14,16.70
2021,06,24,07,15,16.80
2021,06,24,07,16,16.80
2021,06,24,07,17,16.90
2021,06,24,07,18,16.90
2021,06,24,07,19,16.90
2021,06,24,07,20,16.90
2021,06,24,07,21,17.00
2021,06,24,07,22,17.00
2021,06,24,07,23,17.00
2021,06,24,07,24,17.10
2021,06,24,07,25,17.10
2021,06,24,07,26,17.20
2021,06,24,07,27,17.20
2021,06,24,07,28,17.30
2021,06,24,07,29,17.30
2021,06,24,07,30,17.30
2021,06,24,07,31,17.40
2021,06,24,07,32,17.40
2021,06,24,07,33,17.50
2021,06,24,07,34,17.60
2021,06,24,07,35,17.70
2021,06,24,07,36,17.70
2021,06,24,07,37,17.70
2021,06,24,07,38,17.80
2021,06,24,07,39,17.80
2021,06,24,07,40,17.80
2021,06,24,07,41,17.80
2021,06,24,07,42,17.80
2021,06,24,07,43,17.80
2021,06,24,07,44,17.70
2021,06,24,07,45,17.70
2021,06,24,07,46,17.70
2021,06,24,07,47,17.60
2021,06,24,07,48,17.50
2021,06,24,07,49,17.50
2021,06,24,07,50,17.50
2021,06,24,07,51,17.60
2021,06,24,07,52,17.60
2021,06,24,07,53,17.70
2021,06,24,07,54,17.70
2021,06,24,07,55,17.70
2021,06,24,07,56,17.60
2021,06,24,07,57,17.60
2021,06,24,07,58,17.60
2021,06,24,07,59,17.70
2021,06,24,08,00,17.80
2021,06,24,08,01,17.90
2021,06,24,08,02,17.90
2021,06,24,08,03,18.10
2021,06,24,08,04,18.10
2021,06,24,08,05,18.10
2021,06,24,08,06,18.10
2021,06,24,08,07,18.00
2021,06,24,08,08,17.90
2021,06,24,08,09,17.90
2021,06,24,08,10,17.90
2021,06,24,08,11,17.90
2021,06,24,08,12,17.80
2021,06,24,08,13,17.80
2021,06,24,08,14,17.80
2021,06,24,08,15,17.90
2021,06,24,08,16,17.90
2021,06,24,08,17,17.90
2021,06,24,08,18,17.90
2021,06,24,08,19,17.90
2021,06,24,08,20,17.90
2021,06,24,08,21,17.90
2021,06,24,08,22,17.90
2021,06,24,08,23,18.00
2021,06,24,08,24,18.10
2021,06,24,08,25,18.10
2021,06,24,08,26,18.10
2021,06,24,08,27,18.10
2021,06,24,08,28,18.10
2021,06,24,08,29,18.10
2021,06,24,08,30,18.20
2021,06,24,08,31,18.20
2021,06,24,08,32,18.20
2021,06,24,08,33,18.20
2021,06,24,08,34,18.20
2021,06,24,08,35,18.20
2021,06,24,08,36,18.20
2021,06,24,08,37,18.30
2021,06,24,08,38,18.30
2021,06,24,08,39,18.40
2021,06,24,08,40,18.40
2021,06,24,08,41,18.50
2021,06,24,08,42,18.50
2021,06,24,08,43,18.60
2021,06,24,08,44,18.60
2021,06,24,08,45,18.60
2021,06,24,08,46,18.60
2021,06,24,08,47,18.70
2021,06,24,08,48,18.70
2021,06,24,08,49,18.80
2021,06,24,08,50,18.70
2021,06,24,08,51,18.60
2021,06,24,08,52,18.60
2021,06,24,08,53,18.60
2021,06,24,08,54,18.60
2021,06,24,08,55,18.70
2021,06,24,08,56,18.70
2021,06,24,08,57,18.90
2021,06,24,08,58,19.00
2021,06,24,08,59,19.10
2021,06,24,09,00,19.20
2021,06,24,09,01,19.30
2021,06,24,09,02,19.40
2021,06,24,09,03,19.40
2021,06,24,09,04,19.40
2021,06,24,09,05,19.40
2021,06,24,09,06,19.50
2021,06,24,09,07,19.50
2021,06,24,09,08,19.60
2021,06,24,09,09,19.50
2021,06,24,09,10,19.50
2021,06,24,09,11,19.40
2021,06,24,09,12,19.40
2021,06,24,09,13,19.30
2021,06,24,09,14,19.30
2021,06,24,09,15,19.40
2021,06,24,09,16,19.40
2021,06,24,09,17,19.50
2021,06,24,09,18,19.60
2021,06,24,09,19,19.60
2021,06,24,09,20,19.80
2021,06,24,09,21,19.90
2021,06,24,09,22,19.90
2021,06,24,09,23,19.90
2021,06,24,09,24,19.90
2021,06,24,09,25,19.90
2021,06,24,09,26,19.90
2021,06,24,09,27,19.90
2021,06,24,09,28,20.10
2021,06,24,09,29,20.20
2021,06,24,09,30,20.20
2021,06,24,09,31,20.20
2021,06,24,09,32,20.30
2021,06,24,09,33,20.30
2021,06,24,09,34,20.40
2021,06,24,09,35,20.40
2021,06,24,09,36,20.40
2021,06,24,09,37,20.40
2021,06,24,09,38,20.50
2021,06,24,09,39,20.50
2021,06,24,09,40,20.50
2021,06,24,09,41,20.60
2021,06,24,09,42,20.60
2021,06,24,09,43,20.60
2021,06,24,09,44,20.60
2021,06,24,09,45,20.70
2021,06,24,09,46,20.70
2021,06,24,09,47,20.60
2021,06,24,09,48,20.60
2021,06,24,09,49,20.60
2021,06,24,09,50,20.80
2021,06,24,09,51,20.90
2021,06,24,09,52,21.00
2021,06,24,09,53,21.00
2021,06,24,09,54,21.00
2021,06,24,09,55,21.00
2021,06,24,09,56,21.00
2021,06,24,09,57,21.10
2021,06,24,09,58,21.10
2021,06,24,09,59,21.20
2021,06,24,10,00,21.20
2021,06,24,10,01,21.10
2021,06,24,10,02,21.00
2021,06,24,10,03,21.00
2021,06,24,10,04,21.00
2021,06,24,10,05,20.90
2021,06,24,10,06,20.70
2021,06,24,10,07,20.60
2021,06,24,10,08,20.50
2021,06,24,10,09,20.50
2021,06,24,10,10,20.50
2021,06,24,10,11,20.70
2021,06,24,10,12,20.80
2021,06,24,10,13,20.90
2021,06,24,10,14,21.00
2021,06,24,10,15,21.00
2021,06,24,10,16,20.90
2021,06,24,10,17,20.80
2021,06,24,10,18,20.70
2021,06,24,10,19,20.60
2021,06,24,10,20,20.50
2021,06,24,10,21,20.40
2021,06,24,10,22,20.40
2021,06,24,10,23,20.40
2021,06,24,10,24,20.30
2021,06,24,10,25,20.30
2021,06,24,10,26,20.30
2021,06,24,10,27,20.50
2021,06,24,10,28,20.70
2021,06,24,10,29,20.80
2021,06,24,10,30,20.90
2021,06,24,10,31,20.90
2021,06,24,10,32,20.90
2021,06,24,10,33,21.00
2021,06,24,10,34,21.00
2021,06,24,10,35,21.10
2021,06,24,10,36,21.10
2021,06,24,10,37,21.10
2021,06,24,10,38,21.20
2021,06,24,10,39,21.10
2021,06,24,10,40,21.10
2021,06,24,10,41,21.20
2021,06,24,10,42,21.30
2021,06,24,10,43,21.30
2021,06,24,10,44,21.30
2021,06,24,10,45,21.30
2021,06,24,10,46,21.20
2021,06,24,10,47,21.20
2021,06,24,10,48,21.10
2021,06,24,10,49,21.00
2021,06,24,10,50,21.10
2021,06,24,10,51,21.10
2021,06,24,10,52,21.20
2021,06,24,10,53,21.20
2021,06,24,10,54,21.30
2021,06,24,10,55,21.30
2021,06,24,10,56,21.50
2021,06,24,10,57,21.50
2021,06,24,10,58,21.40
2021,06,24,10,59,21.50
2021,06,24,11,00,21.60
2021,06,24,11,01,21.50
2021,06,24,11,02,21.40
2021,06,24,11,03,21.40
2021,06,24,11,04,21.40
2021,06,24,11,05,21.40
2021,06,24,11,06,21.40
2021,06,24,11,07,21.40
2021,06,24,11,08,21.50
2021,06,24,11,09,21.60
2021,06,24,11,10,21.70
2021,06,24,11,11,21.80
2021,06,24,11,12,21.90
2021,06,24,11,13,21.70
2021,06,24,11,14,21.50
2021,06,24,11,15,21.30
2021,06,24,11,16,21.30
2021,06,24,11,17,21.20
2021,06,24,11,18,21.10
2021,06,24,11,19,21.10
2021,06,24,11,20,21.10
2021,06,24,11,21,20.90
2021,06,24,11,22,20.90
2021,06,24,11,23,20.80
2021,06,24,11,24,20.80
2021,06,24,11,25,20.90
2021,06,24,11,26,20.90
2021,06,24,11,27,20.90
2021,06,24,11,28,20.90
2021,06,24,11,29,20.90
2021,06,24,11,30,20.90
2021,06,24,11,31,20.80
2021,06,24,11,32,20.90
2021,06,24,11,33,21.00
2021,06,24,11,34,21.20
2021,06,24,11,35,21.40
2021,06,24,11,36,21.40
2021,06,24,11,37,21.40
2021,06,24,11,38,21.40
2021,06,24,11,39,21.50
2021,06,24,11,40,21.60
2021,06,24,11,41,21.60
2021,06,24,11,42,21.70
2021,06,24,11,43,21.70
2021,06,24,11,44,21.60
2021,06,24,11,45,21.70
2021,06,24,11,46,21.80
2021,06,24,11,47,22.00
2021,06,24,11,48,22.10
2021,06,24,11,49,22.20
2021,06,24,11,50,22.20
2021,06,24,11,51,22.20
2021,06,24,11,52,22.20
2021,06,24,11,53,22.30
2021,06,24,11,54,22.20
2021,06,24,11,55,22.20
2021,06,24,11,56,22.20
2021,06,24,11,57,22.20
2021,06,24,11,58,22.10
2021,06,24,11,59,22.20
2021,06,24,12,00,22.30
2021,06,24,12,01,22.40
2021,06,24,12,02,22.40
2021,06,24,12,03,22.60
2021,06,24,12,04,22.60
2021,06,24,12,05,22.70
2021,06,24,12,06,22.80
2021,06,24,12,07,22.70
2021,06,24,12,08,22.60
2021,06,24,12,09,22.50
2021,06,24,12,10,22.30
2021,06,24,12,11,22.30
2021,06,24,12,12,22.30
2021,06,24,12,13,22.30
2021,06,24,12,14,22.30
2021,06,24,12,15,22.20
2021,06,24,12,16,22.00
2021,06,24,12,17,22.00
2021,06,24,12,18,22.10
2021,06,24,12,19,22.20
2021,06,24,12,20,22.30
2021,06,24,12,21,22.50
2021,06,24,12,22,22.60
2021,06,24,12,23,22.70
2021,06,24,12,24,22.80
2021,06,24,12,25,23.00
2021,06,24,12,26,23.10
2021,06,24,12,27,23.10
2021,06,24,12,28,23.10
2021,06,24,12,29,23.20
2021,06,24,12,30,23.30
2021,06,24,12,31,23.30
2021,06,24,12,32,23.40
2021,06,24,12,33,23.40
2021,06,24,12,34,23.30
2021,06,24,12,35,23.30
2021,06,24,12,36,23.10
2021,06,24,12,37,22.90
2021,06,24,12,38,22.90
2021,06,24,12,39,22.80
2021,06,24,12,40,22.60
2021,06,24,12,41,22.60
2021,06,24,12,42,22.60
2021,06,24,12,43,22.70
2021,06,24,12,44,22.70
2021,06,24,12,45,22.70
2021,06,24,12,46,22.70
2021,06,24,12,47,22.80
2021,06,24,12,48,22.70
2021,06,24,12,49,22.70
2021,06,24,12,50,22.60
2021,06,24,12,51,22.60
2021,06,24,12,52,22.50
2021,06,24,12,53,22.50
2021,06,24,12,54,22.50
2021,06,24,12,55,22.50
2021,06,24,12,56,22.50
2021,06,24,12,57,22.60
2021,06,24,12,58,22.80
2021,06,24,12,59,22.90
2021,06,24,13,00,23.00
2021,06,24,13,01,23.10
2021,06,24,13,02,23.20
2021,06,24,13,03,23.40
2021,06,24,13,04,23.50
2021,06,24,13,05,23.70
2021,06,24,13,06,23.70
2021,06,24,13,07,23.60
2021,06,24,13,08,23.60
2021,06,24,13,09,23.60
2021,06,24,13,10,23.60
2021,06,24,13,11,23.70
2021,06,24,13,12,23.70
2021,06,24,13,13,23.60
2021,06,24,13,14,23.60
2021,06,24,13,15,23.60
2021,06,24,13,16,23.70
2021,06,24,13,17,23.80
2021,06,24,13,18,23.90
2021,06,24,13,19,24.00
2021,06,24,13,20,24.10
2021,06,24,13,21,24.10
2021,06,24,13,22,24.10
2021,06,24,13,23,24.10
2021,06,24,13,24,24.10
2021,06,24,13,25,24.10
2021,06,24,13,26,24.10
2021,06,24,13,27,24.10
2021,06,24,13,28,24.10
2021,06,24,13,29,24.10
2021,06,24,13,30,24.10
2021,06,24,13,31,24.20
2021,06,24,13,32,24.40
2021,06,24,13,33,24.50
2021,06,24,13,34,24.50
2021,06,24,13,35,24.60
2021,06,24,13,36,24.60
2021,06,24,13,37,24.60
2021,06,24,13,38,24.60
2021,06,24,13,39,24.50
2021,06,24,13,40,24.60
2021,06,24,13,41,24.70
2021,06,24,13,42,24.80
2021,06,24,13,43,24.80
2021,06,24,13,44,24.80
2021,06,24,13,45,24.90
2021,06,24,13,46,25.00
2021,06,24,13,47,25.20
2021,06,24,13,48,25.10
2021,06,24,13,49,25.10
2021,06,24,13,50,25.30
2021,06,24,13,51,25.30
2021,06,24,13,52,25.20
2021,06,24,13,53,25.10
2021,06,24,13,54,25.10
2021,06,24,13,55,25.10
2021,06,24,13,56,25.20
2021,06,24,13,57,25.30
2021,06,24,13,58,25.30
2021,06,24,13,59,25.40
2021,06,24,14,00,25.50
2021,06,24,14,01,25.50
2021,06,24,14,02,25.50
2021,06,24,14,03,25.50
2021,06,24,14,04,25.50
2021,06,24,14,05,25.60
2021,06,24,14,06,25.60
2021,06,24,14,07,25.70
2021,06,24,14,08,25.80
2021,06,24,14,09,25.90
2021,06,24,14,10,25.90
2021,06,24,14,11,26.00
2021,06,24,14,12,26.00
2021,06,24,14,13,26.10
2021,06,24,14,14,26.30
2021,06,24,14,15,26.40
2021,06,24,14,16,26.40
2021,06,24,14,17,26.40
2021,06,24,14,18,26.30
2021,06,24,14,19,26.20
2021,06,24,14,20,26.10
2021,06,24,14,21,26.00
2021,06,24,14,22,25.90
2021,06,24,14,23,25.60
2021,06,24,14,24,25.40
2021,06,24,14,25,25.40
2021,06,24,14,26,25.30
2021,06,24,14,27,25.40
2021,06,24,14,28,25.40
2021,06,24,14,29,25.50
2021,06,24,14,30,25.60
2021,06,24,14,31,25.80
2021,06,24,14,32,25.90
2021,06,24,14,33,25.90
2021,06,24,14,34,25.90
2021,06,24,14,35,26.00
2021,06,24,14,36,26.10
2021,06,24,14,37,26.10
2021,06,24,14,38,26.10
2021,06,24,14,39,26.20
2021,06,24,14,40,26.20
2021,06,24,14,41,26.20
2021,06,24,14,42,26.10
2021,06,24,14,43,26.10
2021,06,24,14,44,26.00
2021,06,24,14,45,25.90
2021,06,24,14,46,25.90
2021,06,24,14,47,25.90
2021,06,24,14,48,25.80
2021,06,24,14,49,25.90
2021,06,24,14,50,26.00
2021,06,24,14,51,26.00
2021,06,24,14,52,26.00
2021,06,24,14,53,26.10
2021,06,24,14,54,26.10
2021,06,24,14,55,25.80
2021,06,24,14,56,25.60
2021,06,24,14,57,25.40
2021,06,24,14,58,25.10
2021,06,24,14,59,25.10
2021,06,24,15,00,25.20
2021,06,24,15,01,25.10
2021,06,24,15,02,25.20
2021,06,24,15,03,25.20
2021,06,24,15,04,25.10
2021,06,24,15,05,25.00
2021,06,24,15,06,24.90
2021,06,24,15,07,24.90
2021,06,24,15,08,25.10
2021,06,24,15,09,25.10
2021,06,24,15,10,25.10
2021,06,24,15,11,25.20
2021,06,24,15,12,25.30
2021,06,24,15,13,25.40
2021,06,24,15,14,25.50
2021,06,24,15,15,25.50
2021,06,24,15,16,25.50
2021,06,24,15,17,25.60
2021,06,24,15,18,25.70
2021,06,24,15,19,25.70
2021,06,24,15,20,25.70
2021,06,24,15,21,25.70
2021,06,24,15,22,25.80
2021,06,24,15,23,25.90
2021,06,24,15,24,26.00
2021,06,24,15,25,26.10
2021,06,24,15,26,26.20
2021,06,24,15,27,26.00
2021,06,24,15,28,26.10
2021,06,24,15,29,26.00
2021,06,24,15,30,25.70
2021,06,24,15,31,25.40
2021,06,24,15,32,25.40
2021,06,24,15,33,25.40
2021,06,24,15,34,25.30
2021,06,24,15,35,25.40
2021,06,24,15,36,25.50
2021,06,24,15,37,25.60
2021,06,24,15,38,25.80
2021,06,24,15,39,25.90
2021,06,24,15,40,26.00
2021,06,24,15,41,25.90
2021,06,24,15,42,25.60
2021,06,24,15,43,25.40
2021,06,24,15,44,25.30
2021,06,24,15,45,25.30
2021,06,24,15,46,25.40
2021,06,24,15,47,25.60
2021,06,24,15,48,25.70
2021,06,24,15,49,25.80
2021,06,24,15,50,25.80
2021,06,24,15,51,25.90
2021,06,24,15,52,26.00
2021,06,24,15,53,26.10
2021,06,24,15,54,26.20
2021,06,24,15,55,26.20
2021,06,24,15,56,26.30
2021,06,24,15,57,26.30
2021,06,24,15,58,26.40
2021,06,24,15,59,26.50
2021,06,24,16,00,26.60
2021,06,24,16,01,26.60
2021,06,24,16,02,26.50
2021,06,24,16,03,26.20
2021,06,24,16,04,26.20
2021,06,24,16,05,26.20
2021,06,24,16,06,26.20
2021,06,24,16,07,26.20
2021,06,24,16,08,26.20
2021,06,24,16,09,26.10
2021,06,24,16,10,25.90
2021,06,24,16,11,25.60
2021,06,24,16,12,25.40
2021,06,24,16,13,25.40
2021,06,24,16,14,25.30
2021,06,24,16,15,25.30
2021,06,24,16,16,25.40
2021,06,24,16,17,25.50
2021,06,24,16,18,25.60
2021,06,24,16,19,25.70
2021,06,24,16,20,25.90
2021,06,24,16,21,26.00
2021,06,24,16,22,26.10
2021,06,24,16,23,26.20
2021,06,24,16,24,26.30
2021,06,24,16,25,26.30
2021,06,24,16,26,26.20
2021,06,24,16,27,26.20
2021,06,24,16,28,26.30
2021,06,24,16,29,26.30
2021,06,24,16,30,26.10
2021,06,24,16,31,26.00
2021,06,24,16,32,26.10
2021,06,24,16,33,26.20
2021,06,24,16,34,26.20
2021,06,24,16,35,26.30
2021,06,24,16,36,26.30
2021,06,24,16,37,26.30
2021,06,24,16,38,26.30
2021,06,24,16,39,26.30
2021,06,24,16,40,26.30
2021,06,24,16,41,26.40
2021,06,24,16,42,26.50
2021,06,24,16,43,26.60
2021,06,24,16,44,26.50
2021,06,24,16,45,26.10
2021,06,24,16,46,25.90
2021,06,24,16,47,25.90
2021,06,24,16,48,25.90
2021,06,24,16,49,25.80
2021,06,24,16,50,25.80
2021,06,24,16,51,25.90
2021,06,24,16,52,26.00
2021,06,24,16,53,26.00
2021,06,24,16,54,26.10
2021,06,24,16,55,26.10
2021,06,24,16,56,26.10
2021,06,24,16,57,26.00
2021,06,24,16,58,26.00
2021,06,24,16,59,25.90
2021,06,24,17,00,25.90
2021,06,24,17,01,25.80
2021,06,24,17,02,25.60
2021,06,24,17,03,25.50
2021,06,24,17,04,25.50
2021,06,24,17,05,25.50
2021,06,24,17,06,25.50
2021,06,24,17,07,25.60
2021,06,24,17,08,25.70
2021,06,24,17,09,25.80
2021,06,24,17,10,25.80
2021,06,24,17,11,25.80
2021,06,24,17,12,25.90
2021,06,24,17,13,25.90
2021,06,24,17,14,25.90
2021,06,24,17,15,25.90
2021,06,24,17,16,25.80
2021,06,24,17,17,25.80
2021,06,24,17,18,25.90
2021,06,24,17,19,25.90